Location: Llanfihangel-Ystrad
(52.1833°N, 4.1667°W)
Time: 23:48:04
(UTC+00:00)

STARLINK-1175 - Pass Details

Date: 17 February 2020
Orbit: 374 x 385 km, 53.0° (Epoch: 04 April)

Event Time Altitude Azimuth Distance (km) Brightness Sun altitude
Exits shadow 06:24:16 17° 281° (W) 1,068 4.4 -10.6°
Maximum altitude 06:26:35 79° 6° (N) 395 2.9 -10.2°
Drops below altitude 10° 06:29:43 10° 95° (E) 1,399 7.4 -9.7°
Sets 06:31:45 0° 96° (E) 2,248 9.2 -9.4°
